This is the latest recevied weather packets stored in our database for station/object AA7VG. If no packets are shown the sender has not sent any weather packets the latest 10 day(s).
| Time | Temp. | Humidity | Pressure | Rain* | Wind** | Luminosity | Snow |
|---|---|---|---|---|---|---|---|
| 1778027627 | 8.33° C | 35% | 1015.5 hPa | 0 mm | - | - | - |
| 1778027324 | 7.78° C | 36% | 1015.6 hPa | 0 mm | - | - | - |
| 1778027020 | 8.33° C | 36% | 1015.6 hPa | 0 mm | - | - | - |
| 1778026716 | 8.33° C | 35% | 1015.5 hPa | 0 mm | - | - | - |
| 1778026413 | 8.33° C | 35% | 1015.4 hPa | 0 mm | - | - | - |
| 1778026110 | 8.33° C | 34% | 1015.5 hPa | 0 mm | - | - | - |
| 1778025808 | 8.33° C | 33% | 1015.3 hPa | 0 mm | - | - | - |
| 1778025504 | 8.89° C | 33% | 1015.3 hPa | 0 mm | - | - | - |
| 1778025202 | 8.89° C | 34% | 1015.4 hPa | 0 mm | - | - | - |
| 1778024899 | 8.89° C | 33% | 1015.1 hPa | 0 mm | - | - | - |
| 1778024597 | 8.89° C | 33% | 1015.1 hPa | 0 mm | - | - | - |
| 1778024293 | 8.89° C | 33% | 1015 hPa | 0 mm | - | - | - |
| 1778023991 | 8.89° C | 32% | 1014.7 hPa | 0 mm | - | - | - |
| 1778023688 | 8.89° C | 32% | 1015.1 hPa | 0 mm | - | - | - |
| 1778023386 | 9.44° C | 32% | 1015.1 hPa | 0 mm | - | - | - |
| 1778023082 | 10° C | 31% | 1014.7 hPa | 0 mm | - | - | - |
| 1778022781 | 9.44° C | 33% | 1014.8 hPa | 0 mm | - | - | - |
| 1778022478 | 10° C | 33% | 1014.7 hPa | 0 mm | - | - | - |
| 1778022175 | 9.44° C | 33% | 1014.7 hPa | 0 mm | - | - | - |
| 1778021872 | 9.44° C | 34% | 1014.6 hPa | 0 mm | - | - | - |
| 1778021569 | 8.89° C | 34% | 1014.8 hPa | 0 mm | - | - | - |
| 1778021264 | 9.44° C | 33% | 1014.7 hPa | 0 mm | - | - | - |
| 1778020962 | 8.89° C | 34% | 1014.8 hPa | 0 mm | - | - | - |
| 1778020659 | 9.44° C | 33% | 1015 hPa | 0 mm | - | - | - |
| 1778020355 | 9.44° C | 32% | 1014.8 hPa | 0 mm | - | - | - |
* Rain latest hour (hover to see other rain measurements)
** Current wind speed in m/s (hover to see current wind gust speed)